Vorticity
9 8 8 8 7 10 7 5 5 3 4 5 5 4 4 5 3 6 7 6 6 8 6 8 7 7 3 6 8 2 6 5 6
8 9 8 8 7 9 10 9 5 3 5 5 5 4 5 4 4 5 4 7 7 6 7 7 7 6 7 3 2 7 11 -2 4
7 7 7 6 7 9 9 9 9 6 4 3 2 4 5 5 5 5 6 7 7 9 5 8 8 6 6 6 5 3 6 10 2
7 7 7 7 8 8 6 8 9 11 7 5 4 3 3 4 3 4 3 5 7 9 7 6 7 8 7 7 7 2 2 6 4
8 8 8 7 7 8 8 9 9 10 9 6 5 4 4 4 4 4 4 6 7 9 8 9 4 7 9 8 6 4 5 3 6
8 8 9 9 9 9 8 8 7 8 9 10 7 4 4 3 4 4 5 4 6 9 5 5 8 8 8 -5 31 1 7 5 7
8 8 8 7 8 9 11 10 9 7 9 10 9 8 6 4 3 3 3 3 3 4 3 4 4 1 5 10 12 25 -6 4 6
7 7 8 8 9 10 10 10 10 10 9 9 10 9 8 7 5 5 4 3 2 5 7 3 4 5 8 3 10 19 17 31 9
8 8 8 9 9 10 10 10 10 10 10 10 9 9 9 8 7 6 5 3 4 4 3 4 1 3 4 9 -9 12 -30 -10 42
8 8 9 10 10 10 11 11 11 11 11 12 12 11 9 9 8 8 6 6 4 4 4 5 3 4 4 10 5 6 -5 20 19
8 8 8 9 9 9 10 10 12 12 12 12 13 14 12 10 8 9 10 9 6 5 3 4 2 2 2 2 1 8 13 22 -5
8 8 8 7 7 7 8 9 11 10 11 13 14 15 15 15 12 10 9 10 12 13 14 11 8 8 12 10 6 -1 -5 7 8
6 6 6 7 8 7 6 5 5 6 7 8 10 11 14 15 16 16 15 14 13 12 14 13 13 12 9 9 12 19 18 21 16
7 6 6 6 6 6 7 8 8 8 7 6 5 4 5 6 8 11 12 13 14 15 16 12 9 10 12 17 7 -0 -2 -2 -2
5 6 6 6 6 6 5 6 6 6 6 7 6 6 5 5 6 7 6 6 5 5 8 12 14 13 11 8 9 12 10 10 7
4 4 5 4 6 8 10 8 6 6 6 5 5 4 4 6 6 7 7 6 7 7 9 9 6 8 12 14 13 13 11 16 16
5 4 4 4 5 3 4 5 7 8 8 7 7 8 8 7 6 5 5 6 7 9 9 7 10 10 8 9 9 9 11 8 -7
5 4 3 3 4 4 4 6 8 8 9 9 6 9 7 8 8 7 7 6 7 7 8 11 10 9 8 11 12 10 13 8 3
4 5 4 3 3 3 3 3 3 8 7 8 8 7 6 6 7 8 8 7 7 7 6 8 11 14 12 10 9 11 8 13 16
4 4 4 4 3 2 1 3 3 4 6 7 6 5 6 6 6 7 6 6 8 8 7 5 5 6 8 11 13 13 8 9 10
Height
3132 3132 3132 3133 3134 3135 3135 3136 3137 3138 3139 3140 3141 3141 3142 3141 3142 3142 3142 3142 3142 3143 3144 3144 3146 3148 3149 3150 3150 3152 3153 3154 3156
3129 3130 3130 3130 3130 3131 3132 3133 3134 3134 3136 3137 3138 3139 3140 3140 3141 3141 3141 3141 3141 3142 3142 3143 3144 3146 3148 3148 3149 3150 3150 3152 3154
3126 3126 3127 3127 3127 3128 3128 3130 3131 3132 3134 3134 3135 3136 3138 3138 3139 3139 3139 3140 3140 3140 3140 3142 3142 3143 3145 3146 3148 3148 3149 3151 3152
3123 3123 3123 3123 3124 3125 3125 3125 3126 3127 3130 3132 3133 3134 3134 3135 3137 3137 3137 3138 3138 3139 3139 3139 3141 3141 3142 3144 3145 3146 3147 3148 3149
3120 3120 3121 3121 3121 3122 3122 3123 3123 3124 3125 3127 3129 3131 3132 3132 3133 3134 3135 3135 3136 3136 3137 3138 3138 3139 3140 3141 3142 3143 3144 3145 3146
3117 3117 3118 3118 3118 3119 3119 3120 3120 3121 3122 3123 3125 3127 3128 3129 3130 3130 3132 3132 3134 3134 3135 3135 3136 3136 3137 3138 3137 3139 3141 3142 3142
3115 3115 3115 3115 3115 3115 3116 3116 3117 3117 3118 3119 3121 3122 3123 3124 3125 3126 3128 3129 3130 3131 3132 3133 3133 3134 3134 3133 3133 3133 3136 3136 3137
3112 3112 3112 3112 3112 3113 3112 3112 3113 3113 3114 3115 3116 3118 3119 3121 3121 3122 3124 3126 3127 3128 3129 3129 3130 3130 3130 3131 3130 3129 3130 3128 3129
3109 3109 3109 3109 3109 3109 3108 3109 3109 3109 3109 3110 3111 3112 3114 3116 3116 3118 3120 3121 3122 3123 3124 3125 3126 3126 3127 3126 3126 3124 3124 3122 3120
3107 3107 3107 3107 3106 3106 3106 3105 3105 3106 3106 3106 3107 3108 3109 3110 3111 3113 3115 3116 3116 3118 3120 3121 3122 3121 3121 3121 3121 3121 3122 3121 3120
3105 3105 3105 3105 3104 3104 3103 3102 3102 3102 3102 3103 3103 3104 3105 3105 3106 3107 3109 3111 3111 3112 3114 3115 3117 3118 3118 3116 3115 3117 3117 3118 3117
3103 3103 3102 3102 3102 3101 3101 3101 3100 3099 3099 3100 3100 3100 3101 3101 3102 3102 3104 3105 3106 3106 3108 3109 3110 3111 3112 3112 3111 3112 3112 3111 3111
3100 3100 3099 3099 3100 3099 3099 3098 3098 3098 3097 3097 3097 3097 3097 3097 3098 3098 3099 3100 3100 3101 3102 3103 3103 3104 3106 3107 3107 3107 3107 3107 3106
3097 3097 3097 3097 3097 3097 3096 3096 3096 3095 3095 3095 3095 3095 3095 3095 3095 3095 3095 3096 3096 3096 3097 3097 3098 3099 3100 3100 3101 3102 3102 3102 3101
3094 3094 3094 3095 3095 3094 3094 3093 3093 3093 3092 3092 3092 3092 3092 3093 3092 3092 3092 3092 3092 3092 3092 3093 3093 3094 3094 3094 3094 3096 3097 3096 3096
3090 3090 3091 3091 3091 3091 3091 3090 3090 3090 3089 3089 3089 3089 3089 3089 3089 3088 3088 3088 3088 3088 3088 3089 3089 3089 3089 3089 3089 3090 3091 3091 3091
3086 3086 3087 3088 3088 3088 3087 3087 3086 3086 3085 3085 3084 3085 3086 3085 3085 3084 3084 3084 3084 3084 3084 3084 3084 3084 3084 3084 3085 3084 3085 3086 3086
3082 3082 3083 3083 3083 3084 3083 3083 3082 3081 3081 3080 3080 3079 3079 3079 3079 3079 3079 3079 3079 3079 3079 3079 3078 3079 3080 3080 3080 3080 3080 3080 3082
3076 3077 3077 3078 3078 3078 3078 3078 3077 3077 3077 3076 3075 3075 3075 3073 3073 3073 3073 3073 3073 3073 3073 3074 3074 3074 3074 3075 3076 3076 3074 3073 3074
3069 3070 3071 3071 3072 3072 3072 3072 3072 3072 3072 3071 3071 3070 3070 3070 3070 3068 3068 3067 3067 3067 3067 3067 3068 3068 3068 3069 3069 3070 3070 3068 3068